Date String (YYYY-MM-DD hh:mm:ss) UTC,Instrument flags,Ambient pressure (hPa),Sample flow (lpm),Bypass flow (lpm),Sample temperature (°C),Ambient temperature (°C),ASC tube jacket temperature (°C),LED temperature (°C),Box temperature (°C),Sample RH (%),Span deviation,Mass concentration (μg/m³),Mass concentration (μg/m³),Mass concentration (μg/m³)
DateTimeUTC,F1_M11,P_M11,Q1_M11,Q2_M11,T1_M11,T2_M11,T3_M11,T4_M11,T5_M11,U1_M11,ZSPAN_M11,X2_M11,X0_M11,X1_M11
2023-03-02 05:00:00,,0817.1,5.00,0.00,22.6,21.8,00.0,31.2,24.3,13.5,0000.0,0003.32,0007.85,0002.95
2023-03-02 05:01:00,,0817.1,5.00,0.00,22.6,21.5,00.0,31.2,24.2,13.6,0000.0,0003.33,0007.26,0002.95
2023-03-02 05:02:00,,0817.0,5.01,0.00,22.5,21.3,00.0,31.2,24.2,13.6,0000.0,0003.33,0006.65,0002.97
2023-03-02 05:03:00,,0817.0,5.01,0.00,22.5,21.1,00.0,31.2,24.1,13.6,0000.0,0003.35,0006.98,0002.98
2023-03-02 05:04:00,,0817.2,4.99,0.00,22.5,21.0,00.0,31.2,24.1,13.6,0000.0,0003.38,0007.31,0003.01
2023-03-02 05:05:00,,0817.1,5.00,0.00,22.5,20.8,00.0,31.2,24.1,13.6,0000.0,0003.42,0007.38,0003.05
2023-03-02 05:06:00,,0817.1,5.01,0.00,22.4,20.7,00.0,31.2,24.1,13.6,0000.0,0003.44,0006.33,0003.07
2023-03-02 05:07:00,,0817.1,5.01,0.00,22.4,20.7,00.0,31.2,24.1,13.7,0000.0,0003.46,0006.04,0003.09
2023-03-02 05:08:00,,0817.1,5.00,0.00,22.4,20.6,00.0,31.2,24.0,13.7,0000.0,0003.48,0006.23,0003.11
2023-03-02 05:09:00,,0817.3,4.99,0.00,22.3,20.5,00.0,31.2,24.0,13.7,0000.0,0003.52,0006.54,0003.14
2023-03-02 05:10:00,,0817.0,5.00,0.00,22.3,20.5,00.0,31.1,24.0,13.7,0000.0,0003.55,0007.03,0003.16
2023-03-02 05:11:00,,0817.0,5.00,0.00,22.3,20.5,00.0,31.1,24.0,13.8,0000.0,0003.62,0007.45,0003.24
2023-03-02 05:12:00,,0816.9,5.00,0.00,22.3,20.7,00.0,31.1,24.0,13.8,0000.0,0003.73,0007.60,0003.34
2023-03-02 05:13:00,,0816.9,5.00,0.00,22.4,21.8,00.0,31.1,24.2,13.7,0000.0,0003.83,0007.81,0003.43
2023-03-02 05:14:00,,0816.9,4.98,0.00,22.5,22.9,00.0,31.1,24.4,13.7,0000.0,0003.97,0007.95,0003.54
2023-03-02 05:15:00,,0816.9,4.99,0.00,22.6,22.9,00.0,31.1,24.5,13.6,0000.0,0004.12,0008.07,0003.67
2023-03-02 05:16:00,,0817.0,4.98,0.00,22.6,22.4,00.0,31.2,24.4,13.5,0000.0,0004.23,0008.50,0003.80
2023-03-02 05:17:00,,0817.3,5.00,0.00,22.5,21.9,00.0,31.2,24.3,13.4,0000.0,0004.37,0008.62,0003.96
2023-03-02 05:18:00,,0817.4,5.01,0.00,22.5,21.6,00.0,31.2,24.2,13.4,0000.0,0004.52,0008.84,0004.12
2023-03-02 05:19:00,,0816.9,5.00,0.00,22.5,21.3,00.0,31.2,24.2,13.3,0000.0,0004.66,0008.90,0004.28
2023-03-02 05:20:00,,0816.9,5.00,0.00,22.5,21.0,00.0,31.2,24.1,13.3,0000.0,0004.86,0008.99,0004.46
2023-03-02 05:21:00,,0817.0,5.01,0.00,22.4,20.8,00.0,31.2,24.0,13.3,0000.0,0005.03,0008.92,0004.63
2023-03-02 05:22:00,,0817.0,5.00,0.00,22.4,20.7,00.0,31.2,24.1,13.3,0000.0,0005.15,0008.83,0004.74
2023-03-02 05:23:00,,0817.0,4.99,0.00,22.4,20.6,00.0,31.2,24.0,13.3,0000.0,0005.20,0008.83,0004.81
2023-03-02 05:24:00,,0817.0,5.00,0.00,22.3,20.5,00.0,31.1,24.0,13.3,0000.0,0005.26,0008.78,0004.88
2023-03-02 05:25:00,,0817.0,4.99,0.00,22.3,20.5,00.0,31.1,23.9,13.3,0000.0,0005.33,0008.75,0004.95
2023-03-02 05:26:00,,0817.0,5.02,0.00,22.3,20.4,00.0,31.1,23.9,13.3,0000.0,0005.35,0008.69,0004.99
2023-03-02 05:27:00,,0817.0,4.99,0.00,22.3,20.4,00.0,31.1,23.8,13.4,0000.0,0005.36,0008.26,0005.00
2023-03-02 05:28:00,,0817.0,5.00,0.00,22.2,20.3,00.0,31.1,23.8,13.5,0000.0,0005.36,0008.21,0005.00
2023-03-02 05:29:00,,0817.0,5.00,0.00,22.2,21.1,00.0,31.0,23.9,13.5,0000.0,0005.36,0008.19,0004.99
2023-03-02 05:30:00,,0817.1,4.99,0.00,22.3,22.2,00.0,31.0,24.2,13.4,0000.0,0005.40,0008.32,0004.99
2023-03-02 05:31:00,,0817.1,5.04,0.00,22.4,23.2,00.0,31.1,24.4,13.4,0000.0,0005.37,0008.33,0004.97
2023-03-02 05:32:00,,0817.1,5.00,0.00,22.5,23.2,00.0,31.1,24.5,13.3,0000.0,0005.33,0008.32,0004.94
2023-03-02 05:33:00,,0817.2,4.99,0.00,22.6,22.6,00.0,31.2,24.4,13.3,0000.0,0005.29,0008.20,0004.93
2023-03-02 05:34:00,,0817.1,5.04,0.00,22.5,22.1,00.0,31.2,24.3,13.3,0000.0,0005.31,0008.26,0004.93
2023-03-02 05:35:00,,0817.1,5.01,0.00,22.5,21.8,00.0,31.2,24.2,13.3,0000.0,0005.32,0008.62,0004.94
2023-03-02 05:36:00,,0817.1,5.01,0.00,22.5,21.5,00.0,31.2,24.2,13.4,0000.0,0005.32,0008.65,0004.95
2023-03-02 05:37:00,,0817.2,4.99,0.00,22.5,21.2,00.0,31.2,24.1,13.4,0000.0,0005.32,0008.66,0004.97
2023-03-02 05:38:00,,0817.2,5.01,0.00,22.5,21.1,00.0,31.2,24.1,13.5,0000.0,0005.34,0008.70,0005.00
2023-03-02 05:39:00,,0817.2,5.00,0.00,22.4,20.9,00.0,31.2,24.1,13.5,0000.0,0005.38,0008.89,0005.04
2023-03-02 05:40:00,,0817.3,5.00,0.00,22.4,20.8,00.0,31.2,24.1,13.5,0000.0,0005.43,0009.00,0005.08
2023-03-02 05:41:00,,0817.3,5.01,0.00,22.4,20.7,00.0,31.2,24.0,13.6,0000.0,0005.41,0008.88,0005.11
2023-03-02 05:42:00,,0817.3,4.99,0.00,22.4,20.7,00.0,31.2,24.0,13.6,0000.0,0005.42,0008.82,0005.15
2023-03-02 05:43:00,,0817.3,5.01,0.00,22.3,20.6,00.0,31.1,24.0,13.7,0000.0,0005.51,0009.04,0005.19
2023-03-02 05:44:00,,0817.3,5.00,0.00,22.3,20.6,00.0,31.1,24.0,13.7,0000.0,0005.55,0009.13,0005.22
2023-03-02 05:45:00,,0817.3,5.00,0.00,22.3,20.5,00.0,31.1,24.0,13.7,0000.0,0005.57,0009.18,0005.23
2023-03-02 05:46:00,,0817.3,5.00,0.00,22.3,20.5,00.0,31.1,23.9,13.7,0000.0,0005.58,0008.85,0005.23
2023-03-02 05:47:00,,0817.3,5.00,0.00,22.3,20.4,00.0,31.1,23.9,13.8,0000.0,0005.57,0008.75,0005.24
2023-03-02 05:48:00,,0817.3,5.01,0.00,22.3,21.0,00.0,31.1,24.0,13.8,0000.0,0005.56,0008.73,0005.23
2023-03-02 05:49:00,,0817.3,5.00,0.00,22.4,22.1,00.0,31.0,24.2,13.7,0000.0,0005.57,0009.14,0005.23
2023-03-02 05:50:00,,0817.2,4.99,0.00,22.5,23.1,00.0,31.1,24.4,13.7,0000.0,0005.57,0008.93,0005.22
2023-03-02 05:51:00,,0817.1,5.00,0.00,22.6,22.9,00.0,31.1,24.4,13.6,0000.0,0005.55,0009.21,0005.21
2023-03-02 05:52:00,,0817.1,5.00,0.00,22.6,22.4,00.0,31.1,24.4,13.6,0000.0,0005.58,0009.64,0005.21
2023-03-02 05:53:00,,0817.1,4.99,0.00,22.5,22.0,00.0,31.2,24.3,13.6,0000.0,0005.59,0009.69,0005.20
2023-03-02 05:54:00,,0817.1,5.01,0.00,22.5,21.6,00.0,31.2,24.2,13.6,0000.0,0005.55,0009.54,0005.21
2023-03-02 05:55:00,,0817.1,5.00,0.00,22.5,21.4,00.0,31.2,24.2,13.7,0000.0,0005.56,0009.52,0005.23
2023-03-02 05:56:00,,0817.1,5.00,0.00,22.5,21.1,00.0,31.2,24.1,13.7,0000.0,0005.57,0009.53,0005.24
2023-03-02 05:57:00,,0817.1,5.00,0.00,22.4,21.0,00.0,31.2,24.1,13.7,0000.0,0005.60,0009.62,0005.25
2023-03-02 05:58:00,,0817.1,4.99,0.00,22.4,20.8,00.0,31.2,24.0,13.7,0000.0,0005.67,0009.84,0005.27
2023-03-02 05:59:00,,0817.2,5.01,0.00,22.4,20.7,00.0,31.2,24.0,13.8,0000.0,0005.70,0009.89,0005.28
